Regional Weather Roundup
Issued by NWS

Home | Current Version | Previous Version | Text Only | Print | Product List | Glossary Off
Versions: 1 2 3 4 5 6 7 8 9 10 11 12 13 14 15 16 17 18 19 20 21 22 23 24 25 26 27 28 29 30 31 32 33 34 35 36 37 38 39 40 41 42 43 44 45 46 47 48 49 50

000
ASUS43 KOAX 212002
RWRNE

WEATHER ROUNDUP FOR NEBRASKA
NATIONAL WEATHER SERVICE OMAHA NE
200 PM CST FRI NOV 21 2014

NOTES: SATELLITE DATA IS BEING USED TO AUGMENT CLOUD COVER ABOVE
       12000 FEET.
       "FAIR" INDICATES FEW OR NO CLOUDS BELOW 12,000 FEET WITH NO
       SIGNIFICANT WEATHER AND/OR OBSTRUCTIONS TO VISIBILITY.

  * THESE STATIONS DO NOT REPORT WEATHER SUCH AS RAIN...SNOW OR FOG.

NEZ001>004-019>022-054>056-212100-
NEBRASKA PANHANDLE

CITY           SKY/WX    TMP DP  RH WIND       PRES   REMARKS
SCOTTSBLUFF    PTSUNNY   56  21  25 W21G28    29.87F
ALLIANCE       PTSUNNY   56  22  26 W13       29.86F
CHADRON        PTSUNNY   49  27  42 N7        29.85F
KIMBALL        PTSUNNY   56  20  24 N3        29.87F
SIDNEY         MOSUNNY   57  19  22 N8        29.90F
$$

NEZ057>060-069>072-079>082-212100-
SOUTHWEST NEBRASKA

CITY           SKY/WX    TMP DP  RH WIND       PRES   REMARKS
NORTH PLATTE   PTSUNNY   52  29  41 S12       29.91F
IMPERIAL       SUNNY     55  27  34 S12       29.90F
MCCOOK         SUNNY     53  32  44 S13       29.93F
$$

NEZ005>010-023>029-035>040-094-212100-
NORTH CENTRAL NEBRASKA

CITY           SKY/WX    TMP DP  RH WIND       PRES   REMARKS
VALENTINE      CLOUDY    49  31  49 SW10      29.84F
AINSWORTH      CLOUDY    48  30  49 SW13      29.85F
BROKEN BOW     PTSUNNY   51  32  48 S16G29    29.92F
ORD            CLOUDY    47  30  51 S16       29.93F
$$

NEZ041-046>049-061>064-073>077-083>087-212100-
SOUTH CENTRAL NEBRASKA

CITY           SKY/WX    TMP DP  RH WIND       PRES   REMARKS
GRAND ISLAND   PTSUNNY   42  25  50 SW7       30.02F
HASTINGS       PTSUNNY   46  24  42 S9        30.00F
HOLDREGE       CLOUDY    48  29  48 S10       29.97F
KEARNEY *      CLOUDY    45  28  53 S12       30.00F
YORK           PTSUNNY   37  28  70 S8        30.03F WCI  31
$$

NEZ011>018-030>034-042>045-212100-
NORTHEAST NEBRASKA

CITY           SKY/WX    TMP DP  RH WIND       PRES   REMARKS
NORFOLK        CLOUDY    35  26  69 S14       29.98F WCI  26
BLAIR          PTSUNNY   37  25  63 S12       30.06F WCI  29
COLUMBUS *     PTSUNNY   37  27  65 S10       30.04F WCI  30
FREMONT        PTSUNNY   36  26  66 S10G17    30.06F WCI  28
TEKAMAH        PTSUNNY   39  25  57 S15       30.07F WCI  31
WAYNE          CLOUDY    36  27  70 S14       30.01F WCI  27
$$

NEZ050>053-065>068-078-088>093-212100-
SOUTHEAST NEBRASKA

CITY           SKY/WX    TMP DP  RH WIND       PRES   REMARKS
LINCOLN        MOSUNNY   42  26  53 S8        30.07F
OMAHA EPPLEY   PTSUNNY   39  25  57 S12       30.09F WCI  32
FALLS CITY     CLOUDY    41  28  60 SE10      30.10F
$$

NEZ044-045-051>053-067-212100-
OMAHA AREA

CITY           SKY/WX    TMP DP  RH WIND       PRES   REMARKS
OMAHA EPPLEY   PTSUNNY   39  25  57 S12       30.09F WCI  32
BLAIR          PTSUNNY   37  25  63 S12       30.06F WCI  29
FREMONT        PTSUNNY   36  26  66 S10G17    30.06F WCI  28
OFFUTT AFB     PTSUNNY   38  24  58 SE12      30.08F WCI  30
$$


USA.gov is the U.S. government's official web portal to all federal, state and local government web resources and services.